Location: Guayaquil
(2.1667°S, 79.9000°W)
Time: 17:31:37
(UTC-05:00)

ISS - Visible Passes

Search period start: 26 May 2017 00:00
Search period end: 05 June 2017 00:00
Orbit: 402 x 408 km, 51.6° (Epoch: 27 May)

Date Brightness Start Highest point End Pass type
(mag) Time Alt. Az. Time Alt. Az. Time Alt. Az.
27 May -2.3 05:09:03 10° NNW 05:12:06 38° NE 05:15:10 10° SE visible
28 May -0.6 04:18:23 11° NNE 04:20:08 15° NE 04:22:03 10° E visible
29 May -2.7 05:05:35 28° S 05:05:35 28° S 05:07:30 10° SSE visible
